Location: Peebles
(55.6412°N, 3.1714°W)
Time: 16:22:14
(UTC+01:00)

Cosmos 1934 Rocket - Pass Details

Date: 01 February 2022
Orbit: 938 x 999 km, 83.0° (Epoch: 25 May)

Event Time Altitude Azimuth Distance (km) Brightness Sun altitude
Rises 07:14:43 0° 193° (SSW) 3,684 7.1 -7.4°
Reaches altitude 10° 07:17:14 10° 195° (SSW) 2,732 6.4 -7.1°
Maximum altitude 07:23:31 79° 282° (WNW) 995 4.0 -6.3°
Drops below altitude 10° 07:29:44 10° 10° (N) 2,708 6.2 -5.4°
Sets 07:32:14 0° 12° (NNE) 3,649 6.9 -5.1°
